Location: Oberkirch
(48.5323°N, 8.0787°E)
Time: 00:52:49
(UTC+00:00)

Tiros 1 - Pass Details

Date: 21 February 2026
Orbit: 618 x 649 km, 48.4° (Epoch: 9 March)

Event Time Altitude Azimuth Distance (km) Brightness Sun altitude
Rises 12:50:06 0° 283° (WNW) 2,896 10.6 29.1°
Reaches altitude 10° 12:52:46 10° 269° (W) 1,984 10.0 29.0°
Maximum altitude 12:56:21 23° 217° (SW) 1,318 10.7 28.7°
Drops below altitude 10° 12:59:55 10° 165° (SSE) 1,972 10.6 28.5°
Sets 13:02:34 0° 151° (SSE) 2,875 11.0 28.4°
